Weather History for KWRB - July, 2013

Change the Weather History Date:

Friday, July 19, 2013

  Actual Average Record
Temperature  
Mean Temperature 81 °F -  
Max Temperature 91 °F 90 °F 101 °F (2015)
Min Temperature 72 °F 69 °F 64 °F (2004)
Cooling Degree Days 16    
Growing Degree Days 31 (Base 50)    
Moisture  
Dew Point 72 °F    
Average Humidity 71    
Maximum Humidity 97    
Minimum Humidity 50    
Precipitation  
Precipitation 0.00 in - - ()
Sea Level Pressure  
Sea Level Pressure 30.07 in    
Wind  
Wind Speed 3 mph (SE)    
Max Wind Speed 13 mph    
Max Gust Speed -    
Visibility 10 miles    
Events Rain    
Averages and records for this station are not official NWS values.
T = Trace of Precipitation, MM = Missing Value Source: NWS Daily Summary

Daily Weather History Graph

Daily Weather History Graph

Search for Another Location

Airport or City:

Trip Planner

Search our weather history database for the weather conditions in past years. The results will help you decide how hot, cold, wet, or windy it might be!

Date:

Astronomy

Jul. 19, 2013 Rise Set
Actual Time 6:40 AM EDT 8:40 PM EDT
Civil Twilight 6:12 AM EDT 9:08 PM EDT
Nautical Twilight 5:38 AM EDT 9:42 PM EDT
Astronomical Twilight 5:02 AM EDT 10:17 PM EDT
Moon 5:42 PM EDT (7/19) 3:19 AM EDT (7/19)
Length of Visible Light 14h 56m
Length of Day
14h 00m
Waxing Gibbous, 86% of the Moon is Illuminated
Jul 19
Waxing Gibbous
Jul 22
Full
Jul 29
Last Quarter
Aug 6
New
Aug 14
First Quarter

Hourly Weather History & Observations

Time (EDT) Temp. Heat Index Dew Point Humidity Pressure Visibility Wind Dir Wind Speed Gust Speed Precip Events Conditions
12:17 AM 75.2 °F - 73.4 °F 94% 30.11 in 10.0 mi Calm Calm - N/A Rain Light Rain
12:26 AM 75.2 °F - 73.4 °F 94% 30.11 in 10.0 mi NW 2.3 mph - N/A   Clear
12:58 AM 75.4 °F - 74.3 °F 96% 30.11 in 10.0 mi NW 2.3 mph - 0.00 in   Clear
1:58 AM 74.7 °F - 73.8 °F 97% 30.09 in 10.0 mi NNW 2.3 mph - N/A   Clear
2:58 AM 74.3 °F - 73.0 °F 96% 30.09 in 10.0 mi ENE 1.2 mph - N/A   Clear
3:58 AM 73.6 °F - 72.1 °F 95% 30.09 in 10.0 mi SE 5.8 mph - N/A   Clear
4:58 AM 73.2 °F - 71.8 °F 95% 30.08 in 10.0 mi SE 4.6 mph - N/A   Clear
5:58 AM 72.5 °F - 71.6 °F 97% 30.08 in 10.0 mi SE 3.5 mph - N/A   Clear
6:58 AM 72.0 °F - 70.7 °F 96% 30.09 in 10.0 mi SE 4.6 mph - N/A   Clear
7:58 AM 73.8 °F - 71.8 °F 93% 30.10 in 10.0 mi SE 4.6 mph - N/A   Clear
8:10 AM 75.2 °F - 71.6 °F 89% 30.11 in 10.0 mi SE 4.6 mph - N/A Rain Light Rain
8:19 AM 75.2 °F - 71.6 °F 89% 30.11 in 10.0 mi SE 3.5 mph - N/A   Clear
8:58 AM 77.0 °F - 73.0 °F 88% 30.12 in 10.0 mi South 3.5 mph - 0.00 in   Clear
9:58 AM 81.7 °F 87.1 °F 73.6 °F 76% 30.12 in 10.0 mi Calm Calm - N/A   Clear
10:58 AM 84.4 °F 91.3 °F 73.6 °F 70% 30.12 in 10.0 mi Variable 2.3 mph - N/A   Clear
11:51 AM 86.0 °F 91.8 °F 71.6 °F 62% 30.12 in 10.0 mi Variable 1.2 mph - N/A Rain Light Rain
11:52 AM 86.0 °F 91.8 °F 71.6 °F 62% 30.12 in 10.0 mi Variable 4.6 mph - N/A   Partly Cloudy
11:58 AM 86.9 °F 92.9 °F 71.6 °F 60% 30.12 in 10.0 mi ENE 4.6 mph - 0.00 in   Clear
12:14 PM 87.8 °F 93.8 °F 71.6 °F 58% 30.11 in 10.0 mi Variable 2.3 mph - N/A Rain Light Rain
12:24 PM 87.8 °F 92.6 °F 69.8 °F 55% 30.11 in 10.0 mi Variable 1.2 mph - N/A   Clear
12:28 PM 87.8 °F 92.6 °F 69.8 °F 55% 30.11 in 10.0 mi Calm Calm - N/A Rain Light Rain
12:41 PM 87.8 °F 92.6 °F 69.8 °F 55% 30.10 in 10.0 mi Calm Calm - N/A   Clear
12:54 PM 87.8 °F 92.6 °F 69.8 °F 55% 30.10 in 10.0 mi Calm Calm - N/A Rain Light Rain
12:58 PM 88.3 °F 93.2 °F 70.0 °F 54% 30.10 in 10.0 mi Calm Calm - 0.00 in Rain Light Rain
1:00 PM 89.6 °F 94.7 °F 69.8 °F 52% 30.09 in 10.0 mi Calm Calm - N/A   Partly Cloudy
1:58 PM 89.2 °F 95.9 °F 71.8 °F 56% 30.08 in 10.0 mi Variable 2.3 mph - 0.00 in   Scattered Clouds
1:59 PM 89.6 °F 96.2 °F 71.6 °F 55% 30.08 in 10.0 mi East 2.3 mph - N/A Rain Light Rain
2:09 PM 87.8 °F 93.8 °F 71.6 °F 58% 30.07 in 10.0 mi SSW 2.3 mph - N/A   Scattered Clouds
2:18 PM 87.8 °F 92.6 °F 69.8 °F 55% 30.07 in 10.0 mi SE 3.5 mph - N/A Rain Light Rain
2:51 PM 89.6 °F 96.2 °F 71.6 °F 55% 30.05 in 10.0 mi Variable 3.5 mph - N/A   Clear
2:58 PM 89.4 °F 96.3 °F 71.8 °F 56% 30.05 in 10.0 mi NE 4.6 mph - 0.00 in   Clear
3:02 PM 89.6 °F 96.2 °F 71.6 °F 55% 30.05 in 10.0 mi Variable 4.6 mph - N/A Rain Light Rain
3:19 PM 89.6 °F 94.7 °F 69.8 °F 52% 30.05 in 10.0 mi North 3.5 mph - N/A   Clear
3:31 PM 89.6 °F 94.7 °F 69.8 °F 52% 30.04 in 10.0 mi Variable 2.3 mph - N/A Rain Light Rain
3:41 PM 89.6 °F 94.7 °F 69.8 °F 52% 30.04 in 10.0 mi East 6.9 mph - N/A   Clear
3:47 PM 89.6 °F 94.7 °F 69.8 °F 52% 30.03 in 10.0 mi SE 6.9 mph - N/A Rain Light Rain
3:58 PM 90.1 °F 94.9 °F 69.4 °F 50% 30.03 in 10.0 mi ESE 6.9 mph - 0.00 in Rain Light Rain
3:59 PM 89.6 °F 94.7 °F 69.8 °F 52% 30.03 in 10.0 mi SE 5.8 mph - N/A   Clear
4:00 PM 89.6 °F 94.7 °F 69.8 °F 52% 30.03 in 10.0 mi ESE 3.5 mph - N/A Rain Light Rain
4:25 PM 89.6 °F 99.8 °F 75.2 °F 62% 30.02 in 10.0 mi SE 11.5 mph - N/A   Clear
4:58 PM 87.3 °F 96.3 °F 74.8 °F 66% 30.02 in 10.0 mi ESE 12.7 mph - 0.00 in   Clear
5:58 PM 84.2 °F 90.3 °F 72.5 °F 68% 30.01 in 10.0 mi SE 10.4 mph - N/A   Clear
6:58 PM 84.6 °F 91.0 °F 72.9 °F 68% 30.01 in 10.0 mi SE 8.1 mph - N/A   Clear
7:58 PM 84.0 °F 89.9 °F 72.3 °F 68% 30.00 in 10.0 mi South 4.6 mph - N/A   Partly Cloudy
8:58 PM 78.4 °F - 74.3 °F 87% 30.01 in 10.0 mi South 5.8 mph - N/A   Clear
9:58 PM 78.8 °F - 72.7 °F 81% 30.03 in 10.0 mi South 6.9 mph - N/A   Clear
10:58 PM 76.8 °F - 73.2 °F 89% 30.05 in 10.0 mi South 8.1 mph - N/A   Clear
11:02 PM 77.0 °F - 73.4 °F 89% 30.06 in 10.0 mi South 8.1 mph - N/A Rain Light Rain
11:12 PM 77.0 °F - 73.4 °F 89% 30.06 in 10.0 mi South 6.9 mph - N/A   Clear
11:58 PM 75.2 °F - 72.7 °F 92% 30.07 in 10.0 mi South 8.1 mph - 0.00 in   Clear